Powrót do katalogu

STARLINK-35402

AktywnyŁącznośćVLEO
NORAD 66079·PAYLOAD·🇺🇸 United States

Wystrzelony Oct 19, 2025 z Cape Canaveral Space Force Station

Loading…

Następne Przeloty (najbliższe 24 godziny)

TLE

ŚwieżeSource: CelesTrak SupGP

Epoka: Sep 15, 2026, 02:44 UTC

1 66079C 25235X   26258.11437500 -.00014732  00000+0 -43534-3 0  2587
2 66079  53.1599  84.6207 0001208  83.4161 302.4111 15.34392241    10

Śledź STARLINK-35402 w czasie rzeczywistym z AllMySat

Download on the App Store